DW1024 Weather Reports


time (UTC)temp
F
wind
direction
speed
knots
gust
knots
rain 1hr
in
rain 24hr
in
rain mn
in
humidity
%
barometer
mb
20260508235129 48 46 0.0 0.9 0.00 0.00 0.00 81 1017.5
20260508232131 49 46 0.0 0.0 0.00 0.00 0.00 79 1017.7
20260508230631 50 46 0.0 0.0 0.00 0.00 0.00 78 1017.8
20260508223631 52 46 0.0 0.0 0.00 0.00 0.00 75 1017.7
20260508220631 54 46 0.0 0.0 0.00 0.00 0.00 72 1017.8
20260508215132 55 46 0.0 0.9 0.00 0.00 0.00 70 1017.9
20260508213629 55 47 0.0 2.6 0.00 0.00 0.00 70 1017.9
20260508212129 56 55 0.0 2.6 0.00 0.00 0.00 69 1017.7
20260508205129 57 69 1.7 5.2 0.00 0.00 0.00 68 1017.8
20260508203630 57 35 1.7 4.3 0.00 0.00 0.00 67 1017.8
20260508202129 58 60 1.7 4.3 0.00 0.00 0.00 66 1017.5
20260508200637 58 54 1.7 2.6 0.00 0.00 0.00 66 1017.5
20260508195129 59 56 0.9 2.6 0.00 0.00 0.00 65 1017.3
20260508193631 60 39 0.9 3.5 0.00 0.00 0.00 63 1017.2
20260508192130 60 56 0.9 3.5 0.00 0.00 0.00 62 1017.0
20260508190629 61 38 1.7 4.3 0.00 0.00 0.00 61 1016.9
20260508183628 62 61 2.6 7.8 0.00 0.00 0.00 59 1016.5
20260508182127 63 55 2.6 7.0 0.00 0.00 0.00 58 1016.4
20260508180633 63 40 2.6 8.7 0.00 0.00 0.00 58 1016.3
20260508175126 63 47 3.5 7.8 0.00 0.00 0.00 57 1016.2
20260508173626 64 82 2.6 7.8 0.00 0.00 0.00 57 1016.1
20260508172120 64 43 2.6 7.8 0.00 0.00 0.00 57 1015.9
20260508170622 64 40 2.6 5.2 0.00 0.00 0.00 57 1015.7
20260508165123 64 170 2.6 7.0 0.00 0.00 0.00 56 1015.7
20260508163626 65 12 3.5 7.8 0.00 0.00 0.00 56 1015.6
20260508162132 66 49 3.5 7.8 0.00 0.00 0.00 55 1015.7
20260508160621 66 57 3.5 7.0 0.00 0.00 0.00 55 1015.7
20260508153621 66 88 2.6 7.0 0.00 0.00 0.00 53 1015.6
20260508152122 68 36 2.6 8.7 0.00 0.00 0.00 53 1015.6
20260508150621 67 121 3.5 9.6 0.00 0.00 0.00 55 1015.8
20260508145119 67 90 3.5 8.7 0.00 0.00 0.00 54 1016.1
20260508143623 67 240 1.7 7.0 0.00 0.00 0.00 54 1016.3
20260508142119 68 39 2.6 7.0 0.00 0.00 0.00 57 1016.3
20260508140619 68 155 2.6 10.4 0.00 0.00 0.00 54 1016.2
20260508135120 68 74 1.7 6.1 0.00 0.00 0.00 56 1016.2
20260508133620 66 38 3.5 9.6 0.00 0.00 0.00 57 1016.5
20260508132118 68 178 1.7 7.8 0.00 0.00 0.00 56 1016.5
20260508130620 66 86 3.5 9.6 0.00 0.00 0.00 58 1016.7
20260508125117 69 38 2.6 7.0 0.00 0.00 0.00 54 1016.7
20260508123619 67 38 1.7 6.1 0.00 0.00 0.00 60 1016.8
20260508122117 67 88 2.6 9.6 0.00 0.00 0.00 56 1016.8
20260508120617 67 273 1.7 8.7 0.00 0.00 0.00 59 1016.7
20260508115117 65 15 2.6 8.7 0.00 0.00 0.00 60 1016.7
20260508113619 67 61 2.6 10.4 0.00 0.00 0.00 56 1016.9
20260508112117 66 106 2.6 7.0 0.00 0.00 0.00 59 1017.1
20260508110618 66 76 1.7 7.8 0.00 0.00 0.00 61 1017.1
20260508105119 65 116 2.6 9.6 0.00 0.00 0.00 62 1017.2
20260508103614 64 59 2.6 7.8 0.00 0.00 0.00 64 1017.3
20260508100614 62 192 1.7 4.3 0.00 0.00 0.00 70 1017.5
20260508095114 59 41 0.9 5.2 0.00 0.00 0.00 72 1017.5
20260508093614 58 84 1.7 7.0 0.00 0.00 0.00 75 1017.6
20260508092114 57 72 1.7 6.1 0.00 0.00 0.00 77 1017.6
20260508090617 56 15 1.7 4.3 0.00 0.00 0.00 79 1017.6
20260508083614 55 52 0.9 3.5 0.00 0.00 0.00 83 1017.6
20260508082115 55 53 1.7 5.2 0.00 0.00 0.00 82 1017.6
20260508080610 54 253 0.9 5.2 0.00 0.00 0.00 85 1017.6
20260508075109 53 295 0.9 3.5 0.00 0.00 0.00 89 1017.6
20260508073609 52 211 0.9 2.6 0.00 0.00 0.00 91 1017.6
20260508071830 50 52 0.9 4.3 0.00 0.00 0.00 95 1017.5
20260508065108 49 228 0.9 5.2 0.00 0.00 0.00 96 1017.6
20260508062106 47 200 0.9 2.6 0.00 0.00 0.00 96 1017.5
20260508060605 46 65 0.0 0.0 0.00 0.00 0.00 96 1017.4
20260508055105 46 140 0.0 0.0 0.00 0.00 0.00 95 1017.1
20260508052104 45 121 0.0 0.0 0.00 0.00 0.00 94 1017.0
20260508045101 45 210 0.0 1.7 0.00 0.00 0.00 93 1016.9
20260508042102 44 164 0.0 1.7 0.00 0.00 0.00 91 1016.7
20260508040600 43 164 0.0 0.9 0.00 0.00 0.00 91 1016.7
20260508035102 43 164 0.0 0.9 0.00 0.00 0.00 90 1016.7
20260508033606 43 164 0.0 2.6 0.00 0.00 0.00 90 1016.6
20260508032105 42 218 0.0 2.6 0.00 0.00 0.00 89 1016.5
20260508030607 42 47 0.0 0.9 0.00 0.00 0.00 88 1016.3
20260508025103 42 47 0.0 0.0 0.00 0.00 0.00 86 1016.4
20260508022100 43 47 0.0 0.0 0.00 0.00 0.00 86 1016.6
20260508020557 44 47 0.0 0.0 0.00 0.00 0.00 86 1016.6
20260508015105 44 47 0.0 0.0 0.00 0.00 0.00 85 1016.7
20260508013554 45 47 0.0 0.0 0.00 0.00 0.00 85 1016.7
20260508012053 45 47 0.0 0.0 0.00 0.00 0.00 85 1016.7
20260508010553 46 47 0.0 0.0 0.00 0.00 0.00 85 1016.7
20260508005052 47 47 0.0 0.0 0.00 0.00 0.00 84 1016.7
20260508003555 47 47 0.0 0.0 0.00 0.00 0.00 84 1016.8
20260508002048 48 47 0.0 0.0 0.00 0.00 0.00 84 1016.9
20260508000549 49 47 0.0 0.0 0.00 0.00 0.00 83 1017.0